Location: Kergonan
(48.2337°N, 4.5518°W)
Time: 19:34:56
(UTC+00:00)

CZ-2C R/B - Pass Details

Date: 18 January 2020
Orbit: 785 x 870 km, 98.3° (Epoch: 21 February)

Event Time Altitude Azimuth Distance (km) Brightness Sun altitude
Rises 07:19:46 0° 149° (SSE) 3,283 6.8 -7.1°
Reaches altitude 10° 07:22:06 10° 144° (SE) 2,366 6.1 -6.8°
Maximum altitude 07:27:10 53° 69° (ENE) 993 3.5 -6.0°
Drops below altitude 10° 07:32:22 10° 354° (N) 2,431 4.8 -5.2°
Sets 07:34:48 0° 350° (N) 3,381 5.5 -4.9°
